Regional Weather Roundup
Issued by NWS

Home | Current Version | Previous Version | Graphics & Text | Print | Product List | Glossary On
Versions: 1 2 3 4 5 6 7 8 9 10 11 12 13 14 15 16 17 18 19 20 21 22 23 24 25 26 27 28 29 30 31 32 33 34 35 36 37 38 39 40 41 42 43 44 45 46 47 48 49 50
000
ASUS43 KTOP 221108
RWRKS

WEATHER ROUNDUP FOR KANSAS
NATIONAL WEATHER SERVICE GOODLAND KS
500 AM CST SUN JAN 22 2017

NOTE:  "FAIR" INDICATES FEW OR NO CLOUDS BELOW 12,000 FEET WITH NO
SIGNIFICANT WEATHER AND/OR OBSTRUCTIONS TO VISIBILITY.

KSZ001>006-013>018-027>032-041>047-221200-
NORTHWEST KANSAS

CITY           SKY/WX    TMP DP  RH WIND       PRES   REMARKS
GOODLAND       CLEAR     28  25  88 NW9       29.74R
HAYS           PTCLDY    35  32  88 N13       29.67R WCI  26
HILL CITY      PTCLDY    33  30  88 N10       29.71R WCI  25
RUSSELL        PTCLDY    35  34  96 N14       29.64R WCI  26
$$

KSZ061>065-074>080-084>089-221200-
SOUTHWEST KANSAS

CITY           SKY/WX    TMP DP  RH WIND       PRES   REMARKS
DODGE CITY     PTCLDY    34  32  92 N12       29.66R WCI  25
ELKHART          N/A     33  23  66 NW10        N/A  WCI  25
GARDEN CITY    CLEAR     33  29  85 N14       29.69R WCI  23
GREAT BEND     CLOUDY    38  35  89 NW8       29.64R
LIBERAL          N/A     36  28  75 NW14      29.70R WCI  27
PRATT          CLOUDY    38  35  91 N16       29.61R WCI  29
$$

KSZ066>073-081>083-090>101-221200-
SOUTHEAST KANSAS

CITY           SKY/WX    TMP DP  RH WIND       PRES   REMARKS
CHANUTE        RAIN      48  46  93 NE12      29.47R
COFFEYVILLE    RAIN      49  47  93 NE16      29.42F FOG
HUTCHINSON     CLOUDY    43  38  82 N14       29.58R
MEDICINE LODGE   N/A     43  41  93 N10       29.58R
NEWTON         CLOUDY    43  41  93 N15       29.56R
PARSONS        LGT RAIN  49  46  90 NE10G18   29.45S
WICHITA INTL   CLOUDY    45  43  93 N15       29.53R
WICHITA JABRA  CLOUDY    45  44  97 N13       29.53R
WICHITA MCCONL CLOUDY    45  43  93 N14       29.52R
WINFIELD       LGT RAIN  48  45  89 NE16G22   29.49R
$$

KSZ007>012-019>026-033>040-048>060-102>105-221200-
NORTHEAST KANSAS

CITY           SKY/WX    TMP DP  RH WIND       PRES   REMARKS
CONCORDIA      CLEAR     35  34  96 NW9       29.64R
EMPORIA        CLOUDY    46  43  89 N10       29.54R
LAWRENCE       CLOUDY    46  43  89 N7        29.57R
MANHATTAN      CLOUDY    40  37  89 CALM      29.61R
MARYSVILLE     CLEAR     32  32 100 N8        29.63R
OLATHE IND     CLOUDY    46  45  96 N10       29.55R
OLATHE EXE     CLOUDY    45  45 100 NE10      29.54R
SALINA           N/A    N/A N/A N/A MISG        N/A
TOPEKA BILLARD CLOUDY    46  42  86 N7        29.58R
TOPEKA FORBES  CLOUDY    46  43  89 N8        29.57R
$$



USA.gov is the U.S. government's official web portal to all federal, state and local government web resources and services.